This demonstration page uses our WeatherBlox Daily Observations layout. Learn more.

Left ArrowRight Arrow

53.62937, 11.41316

Hourly Observations for October 6, 2022

Temp ( °F °C ) Dew Point ( °F °C ) Humidity (%) Winds ( mph kmh ) Pressure ( in mb ) Visibility ( mi km ) Precip ( " mm )
12:20 am 00:20 Mostly Cloudy 61 16 54 12 77 77 VRB 6 9 29.88 1012 6 10 0.00 0.00
12:50 am 00:50 Mostly Cloudy 63 17 54 12 72 72 VRB 10 17 29.88 1012 6 10 0.00 0.00
1:20 am 01:20 Cloudy 63 17 54 12 72 72 W 13 20 29.91 1013 6 10 0.00 0.00
1:50 am 01:50 Mostly Cloudy 63 17 54 12 72 72 W 10 17 29.91 1013 6 10 0.00 0.00
2:20 am 02:20 Mostly Cloudy 61 16 52 11 72 72 W 12 19 29.94 1014 6 10 0.00 0.00
2:50 am 02:50 Mostly Cloudy 61 16 52 11 72 72 W 13 20 29.94 1014 6 10 0.00 0.00
3:20 am 03:20 Mostly Cloudy 59 15 52 11 77 77 W 12 19 29.97 1015 6 10 0.00 0.00
3:50 am 03:50 Mostly Cloudy 59 15 52 11 77 77 W 12 19 29.97 1015 6 10 0.00 0.00
4:20 am 04:20 Mostly Clear 57 14 50 10 77 77 W 12 19 30.00 1016 6 10 0.00 0.00
4:50 am 04:50 Mostly Cloudy 57 14 50 10 77 77 W 14 22 30.03 1017 6 10 0.00 0.00
5:20 am 05:20 Mostly Cloudy 57 14 50 10 77 77 W 12 19 30.03 1017 6 10 0.00 0.00
5:50 am 05:50 Mostly Clear 57 14 50 10 77 77 W 10 17 30.06 1018 6 10 0.00 0.00
6:20 am 06:20 Mostly Clear 55 13 50 10 82 82 VRB 10 17 30.06 1018 6 10 0.00 0.00
6:50 am 06:50 Mostly Clear 55 13 48 9 77 77 W 12 19 30.09 1019 6 10 0.00 0.00
7:20 am 07:20 Mostly Clear 55 13 48 9 77 77 W 10 17 30.09 1019 6 10 0.00 0.00
7:50 am 07:50 Mostly Sunny 55 13 48 9 77 77 W 10 17 30.12 1020 6 10 0.00 0.00
8:20 am 08:20 Mostly Sunny 55 13 48 9 77 77 W 9 15 30.12 1020 6 10 0.00 0.00
8:50 am 08:50 Mostly Sunny 55 13 46 8 72 72 W 12 19 30.15 1021 6 10 0.00 0.00
9:20 am 09:20 Mostly Sunny 57 14 48 9 72 72 W 12 19 30.18 1022 6 10 0.00 0.00
9:50 am 09:50 Mostly Sunny 57 14 48 9 72 72 W 12 19 30.18 1022 6 10 0.00 0.00
10:20 am 10:20 Mostly Sunny 57 14 48 9 72 72 W 12 19 30.21 1023 6 10 0.00 0.00
10:50 am 10:50 Mostly Sunny 59 15 48 9 67 67 W 12 19 30.21 1023 6 10 0.00 0.00
11:20 am 11:20 Partly Cloudy 59 15 48 9 67 67 W 9 15 30.24 1024 6 10 0.00 0.00
11:50 am 11:50 Partly Cloudy 59 15 48 9 67 67 W 12 19 30.24 1024 6 10 0.00 0.00
12:20 pm 12:20 Mostly Cloudy 59 15 48 9 67 67 W 13 20 30.24 1024 6 10 0.00 0.00
12:50 pm 12:50 Mostly Cloudy 61 16 46 8 59 59 W 13 20 30.27 1025 6 10 0.00 0.00
1:20 pm 13:20 Partly Cloudy 61 16 46 8 59 59 W 13 20 30.27 1025 6 10 0.00 0.00
1:50 pm 13:50 Partly Cloudy 61 16 45 7 55 55 W 15 24 30.27 1025 6 10 0.00 0.00
2:20 pm 14:20 Partly Cloudy 61 16 45 7 55 55 W 10 17 30.30 1026 6 10 0.00 0.00
2:50 pm 14:50 Mostly Sunny 63 17 46 8 55 55 W 12 19 30.29 1026 6 10 0.00 0.00
3:20 pm 15:20 Partly Cloudy 63 17 45 7 52 52 W 13 20 30.29 1026 6 10 0.00 0.00
3:50 pm 15:50 Partly Cloudy 63 17 46 8 55 55 W 10 17 30.29 1026 6 10 0.00 0.00
4:20 pm 16:20 Mostly Sunny 63 17 45 7 52 52 W 9 15 30.29 1026 6 10 0.00 0.00
4:50 pm 16:50 Mostly Sunny 61 16 45 7 55 55 W 10 17 30.30 1026 6 10 0.00 0.00
5:20 pm 17:20 Mostly Sunny 61 16 45 7 55 55 WSW 8 13 30.30 1026 6 10 0.00 0.00
5:50 pm 17:50 Mostly Sunny 61 16 45 7 55 55 W 7 11 30.30 1026 6 10 0.00 0.00
6:20 pm 18:20 Mostly Sunny 59 15 45 7 59 59 WSW 6 9 30.32 1027 6 10 0.00 0.00
6:50 pm 18:50 Mostly Clear 57 14 45 7 63 63 VRB 3 6 30.33 1027 6 10 0.00 0.00
7:20 pm 19:20 Mostly Clear 55 13 45 7 67 67 VRB 2 4 30.33 1027 6 10 0.00 0.00
7:50 pm 19:50 Mostly Clear 54 12 45 7 71 71 VRB 3 6 30.33 1027 6 10 0.00 0.00
8:20 pm 20:20 Mostly Clear 54 12 45 7 71 71 VRB 2 4 30.33 1027 6 10 0.00 0.00
8:50 pm 20:50 Mostly Clear 54 12 45 7 71 71 VRB 2 4 30.33 1027 6 10 0.00 0.00
9:20 pm 21:20 Mostly Clear 54 12 45 7 71 71 VRB 3 6 30.33 1027 6 10 0.00 0.00
9:50 pm 21:50 Mostly Clear 52 11 45 7 76 76 VRB 3 6 30.33 1027 6 10 0.00 0.00
10:20 pm 22:20 Clear 52 11 45 7 76 76 VRB 3 6 30.33 1027 6 10 0.00 0.00
10:50 pm 22:50 Clear 52 11 45 7 76 76 VRB 3 6 30.33 1027 6 10 0.00 0.00
11:20 pm 23:20 Clear 52 11 45 7 76 76 VRB 3 6 30.33 1027 6 10 0.00 0.00
11:50 pm 23:50 Clear 50 10 45 7 82 82 SSW 5 7 30.33 1027 6 10 0.00 0.00

Powered by AerisWeather